Probability
0 0 0 0 0 0 0 0 0 0 0 1 4 12 18 17 12 6 5 8 10 10 8 8 9 10 9 7 4 1 0 0 0 0 0 0 0 0 0 0 0 0 0 0 0 0 0 0 0
0 0 0 0 0 0 0 0 0 0 1 3 8 17 24 23 17 9 6 9 14 14 10 8 10 12 11 8 5 2 0 0 0 0 0 0 0 0 0 0 0 0 0 0 0 0 0 0 0
0 0 0 0 0 0 0 0 0 1 3 7 15 24 26 23 17 12 10 13 19 19 14 10 12 15 14 10 7 4 1 0 0 0 0 0 0 0 0 0 0 0 0 0 0 0 0 0 0
0 0 0 0 0 0 0 0 1 3 6 12 22 29 25 18 14 15 17 19 22 22 17 13 14 16 15 11 7 5 2 1 0 0 0 0 0 0 0 0 0 0 0 0 0 0 0 0 0
0 0 0 0 0 0 0 0 3 7 11 17 27 32 27 20 19 22 23 24 28 28 23 18 16 18 18 16 11 6 3 1 0 0 0 0 0 0 0 0 0 0 0 0 0 0 0 0 0
0 0 0 0 0 0 0 1 6 10 14 21 29 33 30 26 27 27 27 29 35 36 30 22 17 18 21 20 15 10 5 1 0 0 0 0 0 0 0 0 0 0 0 0 0 1 0 0 0
0 0 0 0 0 0 0 2 7 11 14 21 28 32 30 29 32 34 33 35 40 41 36 28 19 17 18 17 15 12 7 4 1 0 0 0 1 0 0 0 0 0 0 0 0 0 0 0 0
0 0 0 0 0 0 1 4 7 10 13 19 27 31 32 34 39 44 44 41 42 41 38 32 23 17 14 13 11 10 7 5 3 1 0 1 1 1 1 1 1 1 1 0 0 1 2 1 1
0 0 0 0 0 0 2 5 8 10 12 20 29 36 40 45 50 51 47 42 38 35 35 31 24 18 15 12 9 7 5 4 4 3 2 2 3 3 3 3 3 3 3 1 2 4 5 4 4
0 0 0 0 0 0 2 5 8 11 14 22 34 44 48 51 53 48 40 34 28 25 27 26 21 17 14 11 9 6 4 4 5 5 4 4 4 4 3 4 6 6 5 4 5 6 7 8 9
0 0 0 0 0 0 2 5 9 12 15 22 34 44 48 48 46 40 31 25 20 17 19 19 17 12 9 8 6 4 4 4 4 5 6 6 5 4 3 3 6 7 8 8 8 9 9 9 9
0 0 0 0 0 2 4 6 10 14 17 22 31 38 41 38 35 31 25 19 13 12 12 12 12 9 6 5 4 3 4 5 5 6 7 7 5 3 2 2 5 7 9 9 10 11 11 9 7
0 0 0 0 2 4 5 8 13 18 22 25 29 32 31 28 25 24 21 16 10 8 9 9 10 10 7 5 4 3 5 6 5 6 8 7 5 4 2 3 6 7 8 7 8 9 9 7 5
0 0 0 1 3 4 6 8 13 20 26 29 28 27 25 22 19 16 15 14 10 8 9 10 11 11 9 5 4 4 4 4 3 4 6 6 7 5 3 3 7 9 7 6 5 4 4 4 3
0 0 0 1 2 3 5 8 11 19 31 33 29 25 23 20 15 11 11 11 10 11 12 12 12 13 10 6 5 5 4 3 3 3 4 6 7 7 5 4 7 9 8 6 3 1 1 2 2
0 0 0 0 0 2 4 7 10 21 35 38 30 24 21 18 13 9 8 9 10 13 14 13 12 12 10 7 7 8 8 7 8 7 6 6 6 7 8 8 7 8 9 8 5 2 2 2 2
0 0 0 0 0 1 5 9 14 25 37 39 31 23 19 16 12 7 6 7 9 11 11 9 8 7 7 7 8 12 14 13 13 10 7 6 7 8 10 10 9 9 10 10 8 5 5 4 3
0 0 0 0 0 1 6 13 21 26 33 34 28 22 18 15 12 8 6 6 7 7 6 4 3 3 4 6 10 15 17 15 13 11 8 8 8 8 8 9 10 11 11 11 10 8 7 6 4
0 0 0 0 0 2 8 18 25 26 27 28 26 22 17 14 13 11 7 6 5 4 2 2 2 2 3 5 9 14 16 14 11 9 9 8 8 7 7 8 9 11 11 11 10 8 7 6 5
0 0 0 0 0 3 10 20 25 25 27 27 25 19 13 11 12 11 8 5 4 3 2 2 1 1 1 4 8 12 14 12 11 11 9 8 8 9 9 8 9 9 10 10 9 8 7 6 6
0 0 0 0 0 2 7 14 19 25 28 26 22 15 11 10 10 8 6 4 3 1 1 1 1 0 1 3 6 10 12 12 13 12 8 6 7 9 9 8 8 9 9 9 9 8 7 7 7
0 0 0 0 0 1 2 5 12 24 30 27 20 16 13 10 7 5 3 2 1 0 0 1 1 1 1 1 4 6 8 9 9 7 5 4 6 8 7 5 6 8 8 7 7 7 8 8 7
0 0 0 0 0 0 0 1 7 20 30 29 22 17 14 9 5 2 1 0 0 1 1 2 2 2 1 0 1 3 3 4 4 3 3 3 5 6 6 4 4 5 5 5 6 6 7 8 7
0 0 0 0 0 0 0 0 4 13 25 29 25 19 13 6 3 1 1 1 1 2 2 2 1 1 0 0 0 1 1 2 3 3 3 3 4 4 4 3 3 3 3 4 4 5 6 7 7
0 0 0 0 0 0 0 0 1 6 17 26 26 20 12 6 3 2 2 2 2 2 1 1 0 0 0 0 0 0 0 1 2 3 2 2 2 2 1 1 1 1 1 2 3 3 4 5 6
0 0 0 0 0 0 0 0 0 4 14 22 23 16 10 6 4 3 3 2 1 1 0 0 0 0 0 0 0 0 0 0 1 1 1 1 1 0 0 0 0 0 0 1 2 2 2 3 4
0 0 0 0 0 0 0 0 1 5 12 17 16 11 7 5 4 3 2 1 0 0 0 0 0 0 0 0 0 0 0 0 0 0 0 0 0 0 0 0 0 0 0 0 1 1 1 2 2
0 0 0 0 0 0 0 0 1 4 9 11 11 8 6 4 3 3 1 0 0 0 0 0 0 0 0 0 0 0 0 0 0 0 0 0 0 0 0 0 0 0 0 0 0 0 0 1 1
0 0 0 0 0 0 0 0 0 2 5 7 7 6 4 3 3 2 1 0 0 0 0 0 0 0 0 0 0 0 0 0 0 0 0 0 0 0 0 0 0 0 0 0 0 0 0 0 0
0 0 0 0 0 0 0 0 0 1 2 4 5 5 4 3 2 1 0 0 0 0 0 0 0 0 0 0 0 0 0 0 0 0 0 0 0 0 0 0 0 0 0 0 0 0 0 0 0
Wind_Speed
6 4 0 3 6 4 4 7 4 6 1 1 6 10 9 6 4 4 4 13 16 14 12 15 16 17 17 17 16 16 16 16 16 16 16 16 15 14 14 13 13 12 12 12 11 11 11 11 12
3 2 3 5 5 1 7 6 5 6 3 5 8 10 9 7 6 8 6 12 16 15 11 13 16 17 17 17 16 16 16 16 15 14 15 15 14 13 13 12 12 11 11 11 10 10 10 10 10
3 0 4 4 3 5 7 4 3 2 3 5 5 6 7 6 6 5 7 14 14 12 10 13 18 17 17 17 17 16 16 15 15 14 14 13 12 12 11 11 11 11 10 9 9 9 9 8 8
2 4 4 3 6 8 7 9 7 3 1 4 7 7 4 3 4 8 14 15 14 11 9 12 17 17 16 16 16 16 15 15 14 14 13 12 11 10 10 10 10 10 9 9 9 8 7 7 6
3 4 3 2 7 8 8 10 8 4 2 5 9 7 4 4 11 16 14 13 14 10 7 10 15 15 16 16 15 15 15 14 13 13 12 11 10 9 9 9 9 9 8 8 8 7 6 5 4
4 5 3 4 8 8 8 7 5 3 4 6 8 8 3 3 12 14 12 11 12 11 8 9 13 15 15 15 14 13 13 12 12 11 11 10 9 8 8 8 8 8 7 7 7 7 6 4 3
4 3 3 4 6 9 9 5 3 5 5 4 7 7 3 3 7 11 11 11 10 10 8 7 7 10 13 14 13 13 12 12 11 11 11 10 10 9 9 8 8 8 7 7 7 7 6 5 4
5 3 2 3 4 8 7 3 2 6 5 5 6 8 5 5 7 11 11 10 10 8 7 6 6 6 6 8 13 13 13 12 12 11 11 11 10 10 10 8 8 8 8 8 7 7 7 5 5
3 3 3 4 3 6 6 3 2 5 10 8 6 6 8 12 13 14 12 10 8 8 5 5 5 5 5 6 9 10 11 11 11 9 11 9 4 4 5 7 9 9 9 9 8 7 6 6 5
5 4 8 6 4 5 7 3 0 5 9 8 10 13 13 14 14 14 13 10 7 6 5 4 5 4 4 5 5 4 5 5 4 4 5 4 3 3 5 6 10 10 9 8 8 8 6 5 2
5 7 8 8 7 6 4 4 3 7 6 8 14 16 14 15 14 13 12 9 6 4 4 3 4 4 3 3 4 2 2 3 3 4 4 3 3 2 3 2 4 5 6 4 4 5 3 3 2
4 8 8 7 6 3 1 2 5 5 7 10 15 15 15 15 13 11 11 9 6 5 3 2 3 3 2 3 3 3 3 3 2 3 4 3 2 2 2 2 2 2 2 2 2 2 3 3 3
6 10 9 6 4 1 4 5 7 8 13 15 16 15 15 13 10 9 9 8 6 4 1 2 1 3 2 2 2 3 2 3 3 2 3 3 3 2 2 2 2 2 1 2 3 3 3 3 3
7 7 7 4 2 0 4 3 7 8 13 16 15 13 13 12 10 8 7 6 6 5 2 0 1 2 2 2 1 2 2 2 2 2 2 2 2 2 2 2 2 2 2 2 2 3 3 3 2
4 4 5 2 2 2 4 5 5 10 13 15 14 12 12 10 10 9 7 6 5 6 4 1 0 2 3 2 2 2 2 2 2 1 1 2 2 2 2 2 2 3 3 3 2 2 2 2 2
4 2 3 6 2 3 5 2 4 9 15 15 13 12 11 9 9 7 7 6 4 5 4 2 1 2 2 2 1 2 3 3 2 1 1 1 1 1 1 1 1 1 1 2 2 2 2 2 1
4 1 3 8 3 2 5 5 8 9 15 14 12 11 10 10 8 6 5 5 5 5 4 3 3 2 2 1 2 4 4 3 2 2 2 1 1 1 1 1 1 0 1 1 2 1 1 1 1
4 3 4 6 5 2 4 6 9 9 13 14 12 11 9 10 8 7 6 5 5 5 4 3 3 2 1 1 2 4 5 3 3 3 2 2 2 2 1 1 1 0 0 1 1 1 1 2 2
5 5 7 8 6 3 6 8 10 9 11 12 12 12 10 9 8 7 6 6 5 5 4 4 4 3 2 1 2 2 3 2 2 3 3 3 3 3 2 2 1 1 0 1 1 1 2 2 2
6 6 6 7 5 4 6 6 7 7 9 12 15 14 13 10 9 8 6 6 6 6 5 5 4 4 4 3 1 2 3 2 2 2 3 4 4 4 3 3 2 2 1 0 0 1 1 1 1
7 6 6 5 3 4 7 5 5 5 8 9 10 11 12 13 12 9 7 7 7 7 6 5 6 6 6 5 3 4 3 3 3 3 3 4 4 4 3 3 2 2 1 0 1 1 2 1 1
6 6 4 2 3 1 3 3 2 7 8 9 10 10 10 11 11 9 8 7 7 6 6 6 7 7 7 6 5 5 4 3 2 2 2 4 4 4 4 3 3 3 2 2 1 0 1 2 1
6 3 1 1 3 3 5 4 2 5 7 8 10 12 11 11 11 9 8 8 7 6 6 6 7 8 7 7 6 6 5 3 2 3 4 4 4 5 5 4 4 3 2 2 2 1 0 1 1
2 5 6 6 6 3 2 3 2 3 5 10 11 13 13 12 11 10 9 8 8 7 7 6 7 8 8 8 7 6 6 5 5 4 4 3 3 4 5 5 4 4 3 3 2 1 1 0 1
5 7 5 6 5 2 2 2 3 4 4 10 14 13 12 12 11 10 9 9 8 7 7 6 7 7 7 7 7 6 6 5 5 4 3 3 3 3 5 4 4 3 3 3 2 2 2 1 1
1 8 7 4 3 2 3 1 3 2 4 10 13 13 12 11 10 10 9 8 7 7 6 6 6 6 6 6 6 5 5 4 4 4 3 3 2 2 4 4 4 5 4 4 3 2 2 2 2
2 2 6 7 2 2 2 2 2 3 7 10 12 12 12 11 11 11 10 8 7 7 6 5 5 5 5 5 5 5 5 5 4 4 4 2 2 3 4 4 5 5 5 4 4 3 3 3 3
4 4 6 6 4 1 2 3 3 4 5 8 10 11 11 11 11 11 9 8 7 6 5 5 5 4 4 5 4 4 4 5 4 4 5 4 4 4 5 5 5 5 5 5 4 4 3 4 4
4 3 5 4 4 5 2 5 4 7 8 9 9 10 11 12 11 10 9 8 7 6 5 4 4 4 4 4 4 5 5 5 5 5 4 4 4 5 5 5 5 6 6 6 6 6 6 6 5
3 3 5 4 2 3 4 5 4 5 7 9 10 11 11 10 10 10 9 8 7 5 5 4 4 4 3 3 4 4 4 5 5 5 5 5 6 5 5 6 6 7 7 6 6 7 7 6 7
Wind_Direction
305 292 59 50 51 40 262 253 252 298 330 65 90 97 97 87 124 149 136 140 137 143 149 149 145 141 137 133 129 126 124 121 119 117 117 116 116 116 117 117 117 117 118 119 119 117 116 117 117
305 303 57 60 84 322 269 253 259 257 168 114 84 89 80 69 77 103 115 142 139 142 145 148 146 143 140 137 134 132 130 127 124 123 122 121 121 120 120 120 120 119 120 122 121 120 119 120 120
285 353 83 81 145 199 246 260 276 234 140 108 82 59 79 104 105 113 135 139 134 138 142 148 147 144 142 140 139 137 135 133 131 130 128 127 126 124 124 127 127 125 126 127 127 125 125 126 127
40 47 52 83 248 239 242 273 287 272 79 77 95 69 65 80 117 123 131 136 129 128 135 145 146 145 143 143 143 141 140 140 138 137 135 133 132 131 131 132 133 133 133 134 134 134 134 136 137
64 75 54 305 263 263 256 262 261 214 158 95 99 95 50 36 106 117 129 134 128 123 125 139 143 143 143 145 145 145 145 145 144 143 142 141 139 139 138 139 142 142 141 141 141 142 144 148 149
52 70 93 261 269 280 276 261 223 138 106 97 101 109 84 91 118 124 128 129 127 124 124 130 138 142 142 145 146 146 147 148 148 148 148 148 147 148 148 148 150 151 152 153 154 154 158 165 166
113 105 204 244 281 292 283 266 172 133 101 97 119 111 106 101 121 123 121 113 111 118 119 118 131 139 142 142 143 146 148 151 153 154 155 156 157 160 161 159 159 161 164 168 171 171 174 181 191
146 96 292 282 284 282 285 283 140 123 105 97 99 123 148 152 120 105 99 96 99 101 110 117 122 128 134 142 148 151 154 155 158 160 162 165 168 171 173 171 173 176 180 184 186 187 189 197 209
113 76 263 255 259 279 306 345 50 78 91 80 76 101 125 118 111 103 98 88 93 98 99 112 120 126 131 142 152 155 159 162 162 166 169 167 169 176 182 187 189 192 193 196 197 198 202 210 224
118 170 235 227 228 268 294 310 99 86 82 86 85 88 98 101 101 100 99 95 96 102 103 103 114 123 138 151 141 148 157 158 158 161 165 162 167 186 194 203 204 203 202 205 208 208 213 218 231
177 208 239 256 256 257 281 335 7 111 95 132 130 127 115 99 96 99 99 98 93 96 95 105 127 137 151 141 151 157 148 147 158 166 167 167 171 189 199 196 214 210 207 210 218 213 210 210 215
243 255 244 255 259 262 292 39 43 66 117 121 119 117 108 105 103 102 107 109 103 94 100 123 124 130 144 151 164 160 148 154 166 175 173 168 171 183 189 189 195 196 200 199 213 214 211 211 214
245 257 259 253 262 262 64 69 83 81 103 105 101 98 100 100 99 94 96 97 100 102 85 79 114 136 141 154 166 150 141 153 163 166 178 170 171 181 183 192 190 199 198 204 213 210 211 219 218
247 254 260 253 260 300 94 83 88 110 114 105 101 98 101 111 112 107 104 105 107 100 73 16 106 107 126 133 152 130 125 130 124 134 152 156 158 166 174 184 180 191 194 203 205 206 215 226 218
266 281 302 285 229 221 92 45 103 138 122 110 109 109 106 106 108 111 115 114 117 119 122 88 133 85 119 137 164 127 109 108 112 126 131 139 146 155 153 168 186 207 201 197 202 210 202 220 218
350 10 308 291 236 245 110 132 146 140 123 116 115 115 111 106 105 109 115 117 115 102 91 72 82 66 102 111 120 114 112 112 116 104 96 105 131 137 142 160 197 213 197 195 201 201 196 205 196
1 305 266 291 278 212 128 156 159 149 128 126 124 116 118 111 102 103 111 105 93 86 80 63 45 30 33 51 91 94 95 89 86 79 68 49 42 81 115 165 220 208 191 209 216 190 176 180 175
272 278 273 265 273 173 150 151 150 146 135 134 129 124 128 121 121 125 115 100 88 75 61 34 35 50 76 102 89 86 80 73 65 60 49 38 31 44 49 41 1 44 122 236 205 167 172 176 171
243 269 276 273 261 167 161 145 154 149 137 138 135 136 133 122 118 111 102 99 86 69 60 37 23 17 35 62 87 97 86 76 64 56 48 38 35 34 36 21 4 14 196 225 201 181 170 183 153
259 264 273 288 289 147 129 122 135 137 145 147 143 143 137 127 114 104 96 86 83 73 61 49 34 31 31 32 54 89 100 87 81 59 45 39 39 34 33 28 16 3 6 21 113 158 175 201 170
267 240 249 260 1 78 105 76 103 115 121 127 132 135 133 132 124 115 99 82 73 63 52 53 39 33 29 29 54 74 72 67 49 40 34 25 29 39 40 33 22 9 22 341 283 193 167 198 232
264 249 235 266 72 354 105 140 163 139 131 137 136 134 131 126 119 114 103 88 79 69 56 51 43 37 30 34 59 74 80 77 56 48 44 27 29 31 29 30 27 19 14 359 329 286 208 183 218
227 235 132 84 99 54 28 104 259 148 148 157 148 141 133 127 122 116 107 97 82 68 60 51 47 41 34 39 50 68 73 72 62 58 48 34 24 25 26 26 24 18 6 1 359 3 352 182 192
154 50 40 48 67 57 312 112 255 222 180 158 151 142 135 130 126 117 106 95 80 66 57 50 51 44 36 42 47 61 72 72 70 58 46 29 16 17 21 22 20 15 7 2 357 6 24 39 172
72 78 37 15 25 256 278 112 242 262 191 161 153 145 136 132 128 119 110 99 88 75 64 55 54 46 38 44 47 50 59 66 70 66 56 42 25 18 10 14 15 9 1 358 4 25 23 21 70
126 127 146 173 207 276 359 10 278 312 122 130 132 134 132 131 125 118 111 104 96 86 74 66 58 49 40 45 42 41 47 58 61 54 53 47 32 17 7 13 17 17 13 13 19 32 30 36 46
104 115 156 127 108 51 321 309 339 80 105 121 127 130 129 127 123 118 113 106 99 91 81 77 71 59 45 44 47 43 45 56 60 50 45 42 28 25 22 21 20 18 19 18 26 38 34 40 42
111 127 82 100 131 199 285 272 235 188 154 138 139 137 130 126 122 118 114 109 103 97 89 77 76 70 52 44 46 53 44 49 54 53 45 38 26 25 27 26 25 26 27 26 34 39 40 51 45
28 55 94 107 145 152 200 264 236 193 169 154 146 138 135 131 128 123 118 113 109 103 95 86 77 69 58 50 49 49 42 41 45 45 41 40 37 34 34 34 35 38 36 34 42 46 49 55 52
144 165 134 136 199 150 156 258 289 179 161 150 142 139 135 129 125 122 120 116 112 108 100 91 82 76 68 60 57 50 43 46 47 43 39 44 44 40 44 45 42 43 42 39 46 51 49 55 57